EW1884 Weather Reports


time (UTC)temp
C
wind
direction
speed
KPH
gust
KPH
rain 1hr
cm
rain 24hr
cm
rain mn
cm
humidity
%
barometer
mb
20260507141518 6 0 20.9 30.6 0.00 0.61 0.61 86 1020.3
20260507140537 5 0 19.3 29.0 0.00 0.61 0.61 86 1020.2
20260507135538 5 0 19.3 29.0 0.00 0.61 0.61 87 1020.1
20260507134518 5 0 25.7 35.4 0.00 0.61 0.61 86 1020.0
20260507133519 6 0 24.1 35.4 0.00 0.61 0.61 87 1019.9
20260507132519 6 0 22.5 32.2 0.00 0.61 0.61 87 1019.9
20260507131520 6 0 19.3 35.4 0.03 0.61 0.61 87 1019.9
20260507130518 6 0 19.3 30.6 0.05 0.61 0.61 87 1019.8
20260507125538 5 0 19.3 30.6 0.05 0.61 0.61 87 1019.6
20260507124517 5 0 14.5 24.1 0.05 0.61 0.61 88 1019.6
20260507123557 5 0 17.7 27.4 0.05 0.61 0.61 89 1019.6
20260507122517 3 0 20.9 30.6 0.05 0.61 0.61 89 1019.3
20260507121517 3 0 22.5 43.5 0.05 0.61 0.61 88 1019.4
20260507120517 5 0 19.3 29.0 0.00 0.56 0.56 85 1019.4
20260507115519 5 0 17.7 30.6 0.00 0.56 0.56 85 1019.3
20260507114518 5 0 20.9 32.2 0.00 0.56 0.56 84 1019.3
20260507113517 5 0 20.9 29.0 0.00 0.56 0.56 83 1019.0
20260507112537 5 0 14.5 25.7 0.00 0.56 0.56 85 1019.0
20260507111537 4 0 20.9 30.6 0.00 0.56 0.56 84 1018.8
20260507110517 5 0 20.9 30.6 0.00 0.56 0.56 84 1018.8
20260507105517 5 0 20.9 35.4 0.03 0.56 0.56 84 1018.6
20260507104517 6 0 19.3 30.6 0.03 0.56 0.56 85 1018.4
20260507103537 5 0 22.5 38.6 0.03 0.56 0.56 84 1018.3
20260507102517 5 0 22.5 33.8 0.05 0.56 0.56 85 1018.3
20260507101518 5 0 20.9 32.2 0.05 0.56 0.56 87 1018.2
20260507100518 4 0 20.9 35.4 0.05 0.56 0.56 87 1018.1
20260507095518 4 0 25.7 41.8 0.03 0.53 0.53 87 1017.9
20260507094539 5 0 24.1 40.2 0.03 0.53 0.53 86 1017.8
20260507093516 5 0 20.9 29.0 0.03 0.53 0.53 83 1017.7
20260507092517 5 0 19.3 29.0 0.00 0.51 0.51 82 1017.8
20260507091516 5 0 16.1 29.0 0.00 0.51 0.51 86 1017.7
20260507090516 4 0 19.3 33.8 0.00 0.51 0.51 83 1017.7
20260507085516 5 0 24.1 38.6 0.00 0.51 0.51 80 1017.6
20260507084556 6 0 19.3 30.6 0.00 0.51 0.51 77 1017.4
20260507083516 6 0 20.9 32.2 0.00 0.51 0.51 77 1017.3
20260507082516 6 0 17.7 30.6 0.00 0.51 0.51 79 1017.2
20260507081516 5 0 19.3 32.2 0.00 0.51 0.51 80 1017.1
20260507080516 5 0 17.7 25.7 0.00 0.51 0.51 81 1017.0
20260507075516 5 0 14.5 22.5 0.00 0.51 0.51 82 1016.8
20260507074516 5 0 4.8 12.9 0.00 0.51 0.51 86 1016.7
20260507073516 5 0 6.4 12.9 0.00 0.51 0.51 86 1016.7
20260507072517 5 0 6.4 9.7 0.00 0.51 0.51 86 1016.6
20260507071516 4 0 8.0 14.5 0.00 0.53 0.51 87 1016.6
20260507070516 4 0 8.0 16.1 0.00 0.53 0.51 88 1016.5
20260507065516 3 0 8.0 14.5 0.00 0.53 0.51 88 1016.5
20260507064516 3 0 6.4 12.9 0.00 0.53 0.51 89 1016.4
20260507063516 3 0 8.0 16.1 0.00 0.53 0.51 89 1016.4
20260507062516 3 0 9.7 16.1 0.00 0.53 0.51 89 1016.4
20260507061516 3 0 9.7 17.7 0.00 0.53 0.51 90 1016.3
20260507060516 3 0 6.4 14.5 0.03 0.53 0.51 91 1016.2
20260507055516 3 0 4.8 12.9 0.03 0.53 0.51 92 1016.3
20260507054516 2 0 4.8 12.9 0.05 0.53 0.51 92 1016.2
20260507053516 2 0 3.2 9.7 0.05 0.53 0.51 92 1016.4
20260507052516 2 0.0 3.2 0.05 0.53 0.51 92 1016.5
20260507051517 2 0 1.6 6.4 0.08 0.53 0.51 92 1016.5
20260507050536 2 0 6.4 12.9 0.13 0.51 0.51 92 1016.6
20260507045516 2 0 4.8 14.5 0.20 0.51 0.51 92 1016.5
20260507044536 2 0 1.6 4.8 0.23 0.51 0.48 91 1016.4
20260507043516 2 0 1.6 6.4 0.23 0.51 0.48 91 1016.4
20260507042515 2 0 1.6 4.8 0.23 0.48 0.46 91 1016.3
20260507041516 2 0 4.8 8.0 0.20 0.46 0.43 91 1016.1
20260507040516 2 0 4.8 6.4 0.15 0.41 0.38 91 1016.2
20260507035516 3 0 6.4 12.9 0.08 0.33 0.30 90 1016.2
20260507034556 3 0 12.9 19.3 0.03 0.25 0.23 91 1016.0
20260507033515 3 0 9.7 17.7 0.05 0.25 0.23 91 1016.0
20260507032536 3 0 4.8 9.7 0.08 0.25 0.23 91 1016.0
20260507031515 2 0 4.8 9.7 0.10 0.25 0.23 91 1015.9
20260507030516 2 0 4.8 6.4 0.10 0.25 0.23 91 1015.9
20260507025516 2 0 3.2 8.0 0.08 0.23 0.23 91 1015.8
20260507024518 2 0 4.8 9.7 0.08 0.23 0.23 90 1015.8
20260507023518 2 0 8.0 12.9 0.08 0.23 0.20 90 1015.8
20260507022517 2 0 16.1 27.4 0.05 0.20 0.18 90 1015.8
20260507021517 2 0 19.3 30.6 0.05 0.18 0.15 89 1015.7
20260507020517 3 0 14.5 24.1 0.08 0.18 0.15 91 1015.6
20260507015517 3 0 16.1 27.4 0.10 0.18 0.15 90 1015.6
20260507014515 3 0 14.5 24.1 0.15 0.20 0.15 91 1015.6
20260507013517 2 0 9.7 22.5 0.13 0.23 0.13 90 1015.6
20260507012517 2 0 4.8 9.7 0.10 0.23 0.10 89 1015.5
20260507011517 2 0 9.7 16.1 0.08 0.23 0.08 89 1015.6
20260507010517 2 0 12.9 24.1 0.05 0.20 0.05 89 1015.5
20260507005517 2 0 11.3 17.7 0.05 0.18 0.05 88 1015.4
20260507004517 3 0 9.7 17.7 0.00 0.15 0.00 88 1015.4
20260507003517 2 0 9.7 14.5 0.00 0.15 0.00 87 1015.3
20260507002537 3 0 8.0 17.7 0.00 0.15 0.00 86 1015.1
20260507001537 3 0 8.0 17.7 0.00 0.15 0.00 86 1014.9
20260507000517 3 0 8.0 17.7 0.00 0.15 0.00 86 1014.7
20260506235517 3 0 4.8 12.9 0.00 0.15 0.00 85 1014.7
20260506234517 3 0 8.0 16.1 0.00 0.15 0.00 85 1014.7
20260506233537 3 0 6.4 14.5 0.00 0.15 0.00 85 1014.7
20260506232517 3 0 6.4 14.5 0.00 0.15 0.00 85 1014.6
20260506231517 3 0 3.2 8.0 0.00 0.15 0.00 85 1014.7
20260506230517 3 0 4.8 8.0 0.00 0.15 0.00 84 1014.6
20260506225518 3 0 4.8 8.0 0.00 0.18 0.00 84 1014.5
20260506224517 3 0 4.8 8.0 0.00 0.20 0.00 84 1014.6
20260506223517 3 0 3.2 8.0 0.00 0.20 0.00 83 1014.8
20260506222517 3 0 1.6 4.8 0.00 0.20 0.00 83 1014.7
20260506221517 3 0 4.8 8.0 0.00 0.23 0.00 83 1014.7
20260506220519 3 0.0 0.0 0.00 0.23 0.00 82 1014.7
20260506215517 3 0 4.8 14.5 0.00 0.23 0.23 81 1014.8
20260506214517 3 0 17.7 29.0 0.00 0.25 0.23 80 1014.8
20260506213517 3 0 6.4 12.9 0.00 0.30 0.23 82 1014.7
20260506212516 3 0 4.8 6.4 0.00 0.30 0.23 82 1014.6
20260506211516 3 0 4.8 9.7 0.00 0.30 0.23 82 1014.5
20260506210517 3 0 4.8 8.0 0.00 0.30 0.23 82 1014.6
20260506205516 3 0 4.8 9.7 0.00 0.30 0.23 83 1014.6
20260506204517 3 0 4.8 8.0 0.00 0.30 0.23 82 1014.5
20260506203516 3 0 4.8 8.0 0.00 0.30 0.23 82 1014.4
20260506202517 3 0 4.8 8.0 0.00 0.30 0.23 82 1014.5
20260506201537 3 0 6.4 9.7 0.00 0.30 0.23 82 1014.5
20260506200516 3 0 3.2 8.0 0.00 0.30 0.23 82 1014.4
20260506195516 3 0 6.4 12.9 0.00 0.30 0.23 82 1014.4
20260506194516 4 0 6.4 9.7 0.00 0.30 0.23 82 1014.5
20260506193515 4 0 6.4 12.9 0.00 0.30 0.23 81 1014.4
20260506192536 4 0 6.4 12.9 0.00 0.30 0.23 82 1014.3
20260506191516 5 0 6.4 12.9 0.00 0.30 0.23 81 1014.2
20260506190515 5 0 6.4 12.9 0.00 0.30 0.23 81 1014.3
20260506185515 5 0 9.7 16.1 0.00 0.30 0.23 81 1014.3
20260506184536 5 0 8.0 12.9 0.00 0.30 0.23 81 1014.1
20260506183537 5 0 8.0 16.1 0.00 0.33 0.23 81 1014.1
20260506182518 5 0 9.7 16.1 0.00 0.36 0.23 81 1014.0
20260506180517 5 0 12.9 20.9 0.00 0.36 0.23 80 1014.0
20260506175518 6 0 11.3 19.3 0.00 0.36 0.23 81 1014.2
20260506174538 5 0 11.3 17.7 0.00 0.36 0.23 81 1014.1
20260506173517 5 0 11.3 17.7 0.00 0.41 0.23 80 1014.1
20260506172517 5 0 12.9 20.9 0.00 0.48 0.23 79 1013.9
20260506171517 5 0 9.7 14.5 0.00 0.51 0.23 77 1013.8
20260506170517 5 0 9.7 17.7 0.00 0.51 0.23 79 1013.8
20260506165557 5 0 9.7 16.1 0.00 0.51 0.23 81 1013.9
20260506164517 4 0 9.7 16.1 0.00 0.51 0.23 83 1013.8
20260506163537 4 0 9.7 16.1 0.00 0.51 0.23 84 1013.9
20260506162517 4 0 11.3 19.3 0.00 0.51 0.23 84 1014.0
20260506161517 4 0 11.3 17.7 0.00 0.51 0.23 84 1013.9
20260506160537 5 0 8.0 14.5 0.00 0.51 0.23 84 1013.9
20260506155517 5 0 11.3 16.1 0.00 0.51 0.23 84 1014.0
20260506154517 5 0 12.9 20.9 0.00 0.51 0.23 83 1013.9
20260506153517 5 0 14.5 22.5 0.00 0.51 0.23 83 1014.1
20260506152517 5 0 16.1 25.7 0.00 0.51 0.23 83 1014.1
20260506151517 6 0 16.1 25.7 0.00 0.51 0.23 83 1014.0
20260506150558 5 0 14.5 24.1 0.00 0.51 0.23 82 1014.0
20260506145517 6 0 12.9 20.9 0.00 0.51 0.23 80 1014.0
20260506144520 5 0 9.7 17.7 0.00 0.61 0.23 80 1013.9
20260506143518 5 0 12.9 20.9 0.00 0.61 0.23 82 1013.9
20260506142517 5 0 16.1 24.1 0.00 0.61 0.23 82 1013.8